Temperature
21 21 21 21 23 22 19 16 16 15 14 11 11 12 12 12 12 10 4 5 6 7 7 7 8 8 9 9 9 9 9 9 8 8 8 8 8 8 8 8 8 8 9 9 9 10 10 11 11
21 21 21 22 24 22 18 16 15 14 12 11 10 11 11 8 7 5 4 5 6 7 7 8 8 8 8 8 8 8 8 7 7 7 7 7 7 7 7 7 7 7 7 7 8 8 9 9 10
21 22 21 22 22 21 18 15 14 12 11 11 10 9 9 7 6 4 4 5 6 7 7 7 8 8 8 8 7 7 7 6 6 6 6 6 6 6 6 6 6 6 6 6 6 7 7 8 8
21 21 20 21 18 15 16 15 13 12 11 10 10 8 6 4 4 4 5 6 6 7 7 7 8 8 7 7 6 6 6 5 5 5 5 5 5 5 5 5 5 5 5 5 5 5 6 6 7
22 22 22 19 16 14 14 13 13 13 12 10 10 8 6 3 3 4 5 6 6 7 7 7 7 7 7 7 6 5 5 5 5 4 4 5 5 4 4 4 4 4 4 4 4 4 5 5 6
21 23 22 19 16 14 13 12 12 12 11 9 9 8 6 3 3 4 5 6 6 7 7 7 7 7 6 6 6 5 5 4 4 4 4 4 4 4 4 4 4 4 4 3 4 4 4 4 4
21 21 20 18 16 15 13 11 13 12 11 10 9 9 5 4 3 4 5 6 6 6 6 6 6 6 6 5 5 4 4 4 4 4 4 4 4 4 3 3 3 3 3 3 3 3 3 3 4
19 20 18 18 17 15 12 11 10 11 10 8 8 9 7 4 3 4 4 5 5 6 6 6 6 5 5 4 4 4 4 4 4 3 3 3 3 3 3 3 3 2 2 2 2 3 3 3 3
19 22 20 18 18 15 12 11 8 8 8 7 7 7 6 4 4 4 4 4 4 5 5 5 5 5 4 4 3 3 3 3 3 3 3 3 3 3 2 2 2 2 2 2 2 2 2 2 2
20 21 18 16 16 14 12 11 9 9 8 7 6 5 4 4 3 3 3 3 4 4 4 5 4 4 3 3 3 2 2 2 2 2 2 2 2 1 2 2 2 1 1 1 1 1 1 1 1
16 17 14 12 12 12 11 10 9 10 10 9 7 5 4 3 3 3 3 3 4 4 4 4 4 3 3 2 2 1 1 1 1 1 1 1 1 0 0 0 -0 -0 -0 -0 0 0 -0 -0 -0
14 12 12 11 10 11 11 10 9 10 11 8 7 5 4 4 3 3 3 3 3 3 3 3 3 2 2 1 1 0 0 0 0 0 -0 -0 -1 -1 -1 -2 -2 -2 -2 -2 -2 -2 -2 -2 -2
14 12 10 10 9 10 10 10 10 9 7 7 6 5 4 4 3 3 3 3 3 3 3 2 2 1 1 0 0 -0 -0 -0 -1 -1 -1 -1 -2 -2 -3 -3 -4 -4 -4 -4 -4 -4 -4 -3 -3
12 12 11 10 10 9 10 9 9 8 7 6 5 5 4 4 3 3 3 3 3 3 2 2 1 0 -0 -0 -0 -1 -1 -1 -1 -2 -2 -3 -3 -4 -4 -5 -5 -5 -5 -5 -6 -5 -5 -5 -5
13 13 12 11 11 10 10 11 10 8 6 6 5 5 4 3 3 3 3 3 2 2 2 1 0 -0 -0 -0 -1 -1 -1 -2 -2 -2 -3 -4 -4 -5 -6 -6 -6 -7 -7 -7 -7 -7 -6 -6 -6
15 16 17 13 11 10 11 15 12 7 7 6 6 5 4 3 3 2 2 2 2 2 1 1 0 -0 -0 -0 -1 -1 -2 -2 -3 -3 -4 -5 -5 -5 -6 -7 -7 -8 -8 -8 -8 -8 -8 -7 -7
18 19 19 15 12 11 12 15 11 7 7 7 6 5 4 3 2 2 2 2 2 1 1 0 -0 -0 -0 -1 -1 -2 -2 -3 -3 -4 -4 -5 -5 -6 -7 -7 -8 -8 -8 -9 -9 -9 -9 -9 -8
20 19 18 18 14 12 12 14 11 7 7 7 7 6 5 4 3 2 1 1 1 1 1 -0 -1 -1 -1 -1 -2 -2 -3 -3 -4 -4 -5 -5 -6 -7 -8 -8 -9 -9 -9 -9 -10 -10 -10 -9 -9
18 18 18 17 13 12 13 14 13 8 7 8 7 6 5 4 3 1 1 1 1 1 0 -0 -1 -1 -2 -2 -2 -2 -3 -4 -5 -5 -6 -6 -7 -8 -8 -9 -10 -10 -10 -10 -10 -10 -10 -10 -10
17 18 18 15 12 12 14 13 13 10 8 8 8 7 6 5 2 1 1 1 1 0 0 -1 -1 -2 -2 -3 -3 -3 -4 -5 -6 -6 -7 -7 -8 -8 -9 -10 -10 -11 -11 -11 -11 -11 -11 -10 -10
17 18 17 16 13 11 12 16 12 10 8 7 7 7 6 5 3 1 1 1 0 0 -0 -1 -2 -2 -3 -3 -3 -4 -5 -6 -6 -7 -7 -8 -8 -9 -10 -10 -11 -11 -11 -11 -11 -11 -11 -11 -11
18 15 14 14 15 17 13 17 16 11 9 8 7 6 6 5 3 2 1 1 1 0 -1 -1 -2 -3 -3 -3 -4 -5 -5 -6 -7 -8 -8 -9 -9 -10 -10 -11 -11 -11 -11 -11 -11 -11 -12 -12 -11
15 13 13 13 14 15 14 16 18 11 12 11 9 7 6 5 3 1 1 1 1 0 -1 -2 -2 -3 -3 -4 -4 -5 -6 -6 -7 -8 -9 -9 -10 -10 -11 -11 -11 -11 -11 -11 -12 -12 -12 -12 -12
13 14 13 13 15 17 16 16 18 15 15 13 11 8 6 4 2 1 1 1 0 -0 -1 -2 -2 -3 -3 -4 -5 -5 -6 -7 -8 -8 -9 -10 -10 -10 -11 -11 -11 -11 -11 -11 -12 -12 -12 -12 -12
15 17 18 18 18 18 13 14 17 15 12 11 10 8 5 3 2 1 1 1 0 -1 -1 -2 -3 -3 -4 -4 -5 -6 -6 -7 -8 -9 -10 -10 -10 -10 -11 -11 -11 -11 -11 -12 -12 -12 -12 -12 -12
15 16 17 17 18 18 14 15 18 12 8 7 6 5 4 2 1 1 1 1 -0 -1 -2 -2 -3 -3 -4 -5 -5 -6 -7 -7 -8 -9 -10 -10 -11 -11 -11 -11 -11 -11 -11 -11 -11 -11 -12 -12 -12
15 15 14 16 15 15 17 17 17 9 9 7 6 4 3 2 1 1 1 0 -0 -1 -2 -2 -3 -4 -4 -5 -5 -6 -7 -8 -8 -9 -9 -10 -10 -11 -11 -11 -11 -11 -11 -11 -11 -11 -11 -12 -12
14 14 15 15 16 16 18 17 18 16 14 11 7 5 3 2 1 0 0 0 -0 -1 -2 -2 -3 -4 -4 -5 -6 -6 -7 -8 -8 -9 -10 -10 -10 -11 -11 -11 -11 -11 -11 -11 -11 -11 -11 -11 -11
13 13 14 15 15 16 16 18 17 16 14 12 10 6 4 2 1 1 0 -0 -1 -1 -2 -3 -3 -4 -5 -5 -6 -6 -7 -8 -8 -9 -10 -10 -10 -11 -11 -11 -11 -11 -11 -11 -11 -11 -11 -11 -11
14 14 14 16 15 14 15 17 15 13 11 10 9 6 4 2 1 1 0 -0 -1 -1 -2 -3 -3 -4 -5 -5 -6 -6 -7 -8 -8 -9 -10 -10 -10 -11 -11 -11 -11 -11 -11 -11 -11 -11 -11 -11 -11
Wind_Speed
4 3 2 1 3 7 7 6 6 8 5 6 8 7 8 8 5 6 4 10 13 14 16 19 23 24 24 25 26 26 26 27 27 28 28 29 29 29 28 29 29 29 29 29 28 29 29 28 28
3 1 0 1 3 7 6 6 8 7 10 10 7 7 8 8 7 6 4 10 12 14 15 19 22 22 23 24 25 25 25 26 27 27 28 28 28 28 28 29 28 28 28 28 28 28 28 28 28
4 4 4 4 5 6 8 8 12 12 9 5 5 6 5 6 5 4 6 8 11 13 15 19 21 22 23 23 24 24 25 25 26 27 27 28 28 28 28 28 28 28 28 28 28 28 28 28 28
2 4 5 7 10 6 7 12 13 12 6 4 7 8 6 5 4 6 7 8 10 13 15 18 22 22 22 23 23 24 24 25 25 26 26 27 27 27 27 27 28 28 28 28 28 28 28 28 28
2 3 6 8 8 6 8 11 10 6 6 6 7 7 7 6 9 8 7 9 11 13 14 17 20 21 22 23 23 23 23 24 25 25 26 26 26 26 26 27 27 27 28 28 28 28 28 28 28
3 3 5 8 7 7 7 7 7 6 7 7 8 9 7 8 8 7 7 8 11 12 13 15 18 19 20 22 22 22 22 23 24 25 25 25 25 26 26 26 27 27 28 28 28 28 28 28 27
3 5 6 9 9 7 6 6 7 7 8 7 7 8 9 10 8 6 5 7 9 12 13 15 16 17 17 19 21 20 21 22 22 23 24 24 23 24 24 25 26 27 27 27 28 28 28 28 27
4 7 7 7 9 7 9 6 4 6 7 7 6 6 9 13 10 6 4 5 7 10 13 15 16 17 16 15 17 18 18 20 20 21 23 23 21 21 22 23 25 26 27 27 27 28 28 27 26
0 4 6 7 7 8 12 8 6 4 8 6 3 3 10 16 11 6 3 4 7 9 12 14 16 16 15 14 14 15 15 17 19 19 22 20 19 19 20 22 24 25 26 26 26 27 27 26 23
5 4 5 3 3 10 13 9 10 9 9 7 8 10 16 14 10 6 4 5 8 10 11 13 15 15 15 13 12 13 13 14 16 17 19 18 17 17 19 20 22 23 25 24 25 26 24 21 19
7 7 6 5 7 12 12 10 9 10 8 9 15 19 17 13 9 6 4 5 7 8 10 12 14 14 14 12 12 11 11 12 13 15 17 17 16 15 16 16 17 19 21 20 22 21 19 20 19
8 8 7 8 7 9 10 10 8 9 2 9 17 20 17 14 10 6 5 5 6 8 9 11 13 13 13 12 11 11 11 11 12 14 16 16 14 15 16 15 17 17 17 18 19 18 21 21 21
7 7 7 9 9 9 9 8 6 6 6 14 18 17 15 13 10 7 5 4 5 8 9 10 11 12 12 11 11 11 11 12 13 12 14 16 15 15 16 16 16 16 17 17 18 19 20 21 20
10 12 11 8 8 6 7 6 6 7 13 17 17 16 14 12 10 8 5 3 5 7 8 9 9 11 12 11 11 11 11 11 12 12 14 15 15 15 16 16 16 16 17 18 18 20 19 18 18
10 9 7 5 4 5 6 6 8 12 17 18 17 15 13 12 10 8 5 3 4 5 6 8 9 10 12 12 12 11 11 12 12 12 14 15 15 16 16 15 15 15 18 19 18 19 18 16 17
5 5 4 5 5 5 7 7 9 16 19 18 16 15 14 12 11 8 6 4 3 4 5 7 8 10 12 12 12 11 12 12 11 12 13 15 16 17 16 15 15 17 18 17 16 15 14 15 15
4 3 3 5 7 6 8 7 8 17 18 18 17 15 14 13 12 9 7 4 2 3 5 6 9 11 12 12 12 11 11 11 11 12 13 16 16 17 17 15 15 18 16 15 15 13 14 16 16
1 3 3 4 7 9 10 11 7 16 19 18 17 16 15 14 13 10 8 5 2 2 4 6 8 10 12 11 11 10 11 11 11 12 14 16 16 18 17 15 17 17 15 13 14 16 15 15 15
2 4 6 2 3 7 13 14 10 15 18 19 18 17 16 15 12 11 8 5 3 1 4 6 8 10 10 9 9 9 10 9 10 12 14 15 17 17 17 15 16 16 13 15 16 15 17 15 14
3 6 6 2 2 5 11 15 11 13 20 20 19 18 17 15 13 12 10 6 3 1 4 6 7 9 10 9 9 9 10 9 10 11 13 15 16 17 16 16 16 16 14 15 16 16 14 14 13
4 5 5 5 1 4 8 7 5 6 12 15 17 17 17 16 15 13 11 7 3 0 3 5 7 8 9 11 9 10 8 8 8 10 11 15 16 16 16 17 17 17 15 14 16 16 17 15 15
4 1 4 4 6 4 3 6 3 4 7 13 17 17 17 15 15 13 11 7 4 1 2 4 6 7 9 10 9 11 10 10 12 10 11 16 16 16 16 17 17 17 16 15 16 15 15 16 14
2 2 3 4 4 5 3 5 2 2 5 9 14 16 16 15 14 13 10 7 4 1 1 3 5 7 8 9 10 10 10 10 10 11 13 14 15 15 16 17 18 17 16 17 17 17 16 14 15
1 2 2 3 3 4 1 4 4 3 2 1 5 11 13 13 13 12 10 7 4 2 1 3 5 6 7 9 9 10 12 12 13 14 13 12 11 14 16 18 18 18 17 17 17 17 18 16 17
2 5 4 3 3 2 2 5 6 0 3 5 4 6 10 12 13 12 11 8 5 3 2 3 5 6 7 9 9 10 11 12 13 13 13 13 12 12 15 18 18 18 19 19 19 17 17 17 17
1 4 4 5 6 7 2 6 3 1 2 4 5 5 9 12 12 12 10 7 5 3 2 3 5 6 7 8 9 9 10 9 9 12 12 12 12 13 18 19 19 20 20 20 18 15 16 15 15
0 1 2 3 5 6 6 5 5 3 6 7 6 7 11 13 13 12 10 7 5 4 3 3 5 6 7 8 9 9 10 10 11 12 12 11 13 15 18 19 19 20 20 20 18 14 16 15 15
3 3 2 3 5 7 9 7 4 4 5 8 10 11 12 13 13 12 9 8 5 4 3 3 4 6 7 8 8 8 10 11 12 12 12 13 15 17 18 18 18 19 19 19 17 16 15 15 14
4 3 3 2 3 4 7 8 2 5 3 5 8 11 13 14 14 12 10 8 6 4 3 3 4 6 7 8 8 9 10 11 11 11 12 14 15 16 16 17 17 17 18 18 17 17 17 15 14
3 4 5 4 3 4 6 8 2 4 4 6 7 8 11 13 13 12 10 8 6 5 4 4 4 5 6 7 8 9 10 10 11 11 12 14 15 16 16 17 17 17 17 17 16 16 16 15 14
Wind_Direction
102 136 219 228 100 82 90 92 113 123 96 85 77 82 84 62 43 89 64 14 4 0 360 6 12 14 16 17 17 16 16 16 15 14 13 11 9 8 8 6 4 3 1 360 358 356 354 353 351
92 134 335 33 128 121 103 120 123 110 121 116 87 86 87 81 68 82 54 19 11 10 8 12 14 16 17 17 17 17 16 16 14 13 12 10 9 8 6 5 3 2 0 358 357 355 353 351 349
93 54 51 67 83 104 121 130 125 117 124 124 101 72 76 87 82 79 50 23 19 20 16 16 17 19 19 18 17 17 16 15 14 12 11 10 8 6 5 3 2 0 359 357 355 353 351 349 347
107 80 67 71 88 69 111 134 135 134 124 105 122 104 90 59 79 89 66 36 30 27 21 19 20 20 20 19 18 17 16 15 13 12 10 8 7 5 4 2 0 359 357 355 354 351 349 347 345
87 94 86 86 87 102 116 135 150 143 131 126 129 114 106 99 101 95 72 44 33 28 23 22 22 22 22 20 19 17 16 14 12 10 8 7 5 3 2 0 359 357 355 354 352 349 347 345 342
88 84 109 118 114 125 137 158 166 143 128 134 135 122 119 132 124 101 76 52 38 29 24 23 23 23 22 21 19 17 15 13 11 9 6 4 2 0 360 358 356 355 353 351 349 347 345 343 340
78 76 99 125 136 152 149 157 179 157 145 145 143 129 136 153 135 118 87 57 41 31 27 23 21 20 19 20 18 15 14 11 9 7 4 1 359 357 357 355 353 352 350 348 346 344 342 340 336
81 100 110 137 151 159 149 136 137 159 138 130 161 153 158 159 147 133 96 59 43 34 29 24 22 18 13 12 14 10 10 8 6 5 2 358 355 354 353 352 350 348 346 344 342 342 339 337 333
19 100 131 153 165 156 158 152 135 122 136 140 152 137 138 144 149 147 120 73 47 37 31 24 20 16 10 6 5 3 4 4 2 1 359 356 352 350 348 346 345 345 343 341 340 339 336 335 330
23 95 109 100 135 153 161 163 153 158 161 155 143 130 135 148 155 148 108 61 41 33 28 23 18 13 8 2 358 358 359 359 360 358 355 352 348 345 343 340 341 341 340 338 338 336 335 334 330
52 83 106 96 110 140 149 154 165 173 185 188 168 154 154 158 158 148 108 65 45 34 28 22 16 11 5 358 355 355 353 353 353 355 353 348 345 342 341 339 338 338 338 338 335 334 334 330 326
85 77 94 116 123 142 150 155 172 194 227 167 160 156 159 165 165 153 118 74 50 36 27 19 13 7 1 355 350 352 351 350 350 349 351 349 343 340 340 336 335 335 335 333 331 328 326 324 321
89 107 91 107 117 128 144 163 172 184 143 144 148 158 166 169 164 151 127 90 52 36 25 15 7 4 356 351 347 349 350 348 346 346 347 347 341 338 336 331 331 330 330 329 327 324 323 321 318
106 111 113 117 120 143 155 163 179 170 153 152 160 169 174 175 171 164 155 100 54 35 22 9 3 360 353 350 349 348 347 344 343 343 344 343 340 334 330 327 326 326 327 325 322 320 319 317 315
119 113 121 139 148 155 170 198 210 167 165 167 175 179 181 183 181 179 157 113 62 37 17 8 358 354 351 349 348 345 345 343 341 340 339 340 338 333 328 323 322 324 324 322 320 319 318 315 314
142 159 180 167 178 172 214 254 176 166 176 181 186 187 189 190 191 182 163 134 80 34 14 6 355 349 350 349 345 343 342 341 339 338 337 340 337 334 328 322 320 323 321 319 319 319 318 316 314
188 233 242 185 195 189 222 255 159 176 187 193 195 196 197 195 196 187 172 153 105 35 11 1 356 350 347 344 340 338 339 339 338 338 339 340 337 335 329 322 321 323 320 317 317 318 317 314 313
243 267 258 246 188 208 232 247 185 188 199 205 203 204 205 205 200 188 177 164 134 46 10 359 354 350 345 341 338 336 339 340 340 340 340 338 336 334 330 323 323 323 319 318 318 316 314 311 311
284 270 278 270 165 229 250 260 238 197 205 214 213 211 212 213 198 184 181 177 165 44 6 358 352 350 347 345 342 338 338 336 337 337 336 335 335 333 330 326 324 322 319 317 316 316 313 313 314
244 271 281 237 178 252 285 277 259 210 211 216 218 218 218 212 196 190 188 188 185 16 1 353 350 346 347 344 335 331 327 326 327 330 331 334 333 331 329 326 323 320 318 315 316 316 312 311 315
254 276 302 305 280 231 295 277 190 206 222 226 230 230 226 216 205 194 191 191 188 344 0 347 342 339 343 341 334 331 329 327 335 336 332 332 330 328 327 324 321 318 317 313 314 313 310 310 309
299 310 294 287 291 297 324 306 161 191 222 226 227 227 226 216 207 196 190 188 185 147 355 335 335 336 341 340 339 339 336 334 334 331 325 327 327 327 326 324 321 317 315 311 311 309 305 303 302
329 3 273 263 266 279 239 275 267 172 246 233 226 224 221 212 202 192 186 177 168 160 321 324 328 333 340 341 340 336 333 330 327 327 326 328 327 326 325 324 321 318 315 311 308 306 302 298 295
198 217 179 197 235 262 190 272 286 187 218 235 225 219 213 202 192 184 173 165 167 177 274 312 324 333 339 339 338 336 332 330 328 330 329 329 326 325 326 326 321 318 315 312 309 304 300 296 292
258 301 299 288 270 308 134 260 265 153 237 256 266 228 203 191 184 178 174 175 182 205 263 304 322 332 338 337 336 333 330 328 327 328 327 327 325 325 326 326 322 319 316 313 309 304 299 297 292
10 327 345 318 310 313 239 257 280 153 237 259 261 233 194 189 185 182 179 180 188 210 255 301 323 330 334 333 332 328 328 326 322 324 323 322 322 322 322 323 320 318 318 316 314 308 302 298 295
194 107 3 281 284 284 275 273 268 187 241 236 229 208 197 191 187 184 180 182 191 211 247 297 317 324 327 327 326 325 328 325 322 322 321 320 321 322 322 321 321 320 321 320 318 311 307 303 296
4 145 189 267 306 301 295 284 278 227 234 222 224 217 204 192 189 186 184 185 192 209 238 280 306 315 319 321 324 320 321 322 321 319 321 322 322 323 323 323 322 322 322 322 322 319 314 310 303
165 174 199 214 264 284 302 300 213 250 252 248 238 219 203 194 190 187 186 186 192 207 233 271 295 307 314 319 319 318 319 320 320 320 322 323 322 324 324 324 324 323 324 325 326 325 326 321 317
245 225 206 251 246 236 272 278 152 227 241 252 257 222 203 194 189 186 185 187 197 213 233 263 286 299 310 313 313 314 317 319 320 322 323 323 323 324 324 325 325 325 326 326 328 330 333 333 330
Height
1555 1556 1557 1559 1560 1567 1585 1598 1599 1606 1611 1616 1616 1616 1617 1621 1622 1631 1634 1629 1628 1626 1624 1622 1619 1615 1612 1609 1605 1601 1597 1593 1589 1585 1582 1578 1575 1571 1568 1564 1561 1559 1556 1553 1550 1548 1546 1543 1541
1557 1557 1559 1560 1558 1572 1593 1600 1603 1608 1614 1617 1618 1620 1621 1626 1629 1632 1631 1629 1628 1626 1624 1622 1618 1615 1612 1608 1604 1600 1596 1592 1588 1584 1580 1576 1573 1569 1566 1562 1559 1556 1553 1550 1547 1545 1542 1540 1538
1558 1559 1561 1562 1568 1577 1593 1602 1608 1613 1616 1618 1620 1622 1625 1629 1631 1631 1631 1629 1628 1626 1624 1621 1618 1615 1611 1607 1603 1599 1595 1591 1587 1583 1579 1575 1571 1568 1564 1561 1557 1554 1551 1547 1544 1541 1539 1536 1534
1560 1561 1565 1570 1585 1598 1597 1605 1611 1614 1617 1619 1620 1624 1627 1630 1631 1631 1630 1629 1628 1626 1624 1621 1618 1614 1610 1606 1601 1598 1594 1590 1586 1582 1578 1574 1570 1566 1563 1559 1555 1552 1548 1545 1541 1538 1535 1532 1529
1560 1562 1566 1581 1593 1603 1605 1609 1612 1613 1616 1620 1621 1624 1628 1630 1629 1629 1629 1628 1627 1625 1623 1620 1616 1613 1608 1604 1600 1596 1593 1589 1585 1581 1577 1573 1569 1565 1561 1557 1553 1550 1546 1542 1538 1535 1531 1528 1526
1562 1561 1568 1583 1596 1604 1609 1611 1613 1614 1617 1620 1622 1624 1629 1630 1630 1629 1629 1628 1627 1624 1622 1619 1615 1611 1607 1603 1599 1595 1592 1587 1583 1580 1576 1572 1568 1564 1560 1556 1552 1548 1544 1540 1536 1532 1528 1524 1521
1564 1567 1577 1586 1596 1603 1609 1612 1613 1614 1617 1620 1622 1624 1628 1630 1629 1629 1628 1627 1626 1624 1621 1618 1615 1611 1606 1602 1598 1594 1590 1586 1582 1578 1574 1570 1566 1562 1558 1554 1550 1546 1541 1537 1533 1528 1524 1521 1517
1565 1572 1583 1588 1593 1600 1609 1612 1614 1616 1618 1621 1623 1624 1626 1629 1628 1628 1627 1626 1625 1623 1620 1617 1613 1609 1605 1601 1597 1593 1589 1585 1581 1577 1573 1569 1564 1560 1556 1552 1547 1543 1538 1534 1530 1525 1521 1517 1513
1568 1571 1580 1587 1591 1599 1608 1611 1615 1616 1618 1620 1622 1623 1625 1626 1626 1627 1627 1627 1624 1622 1619 1615 1612 1607 1603 1599 1595 1591 1588 1584 1580 1576 1571 1567 1563 1558 1554 1549 1544 1540 1535 1531 1526 1521 1517 1512 1509
1571 1574 1586 1593 1594 1599 1606 1609 1613 1616 1618 1620 1621 1622 1623 1624 1626 1627 1628 1626 1624 1621 1617 1614 1610 1606 1602 1598 1594 1590 1586 1582 1578 1574 1569 1564 1560 1555 1551 1546 1541 1537 1532 1527 1522 1518 1513 1508 1504
1579 1585 1594 1598 1599 1602 1606 1610 1612 1613 1615 1616 1617 1619 1622 1624 1625 1626 1626 1624 1622 1619 1616 1612 1609 1605 1600 1596 1592 1588 1584 1580 1575 1571 1566 1562 1557 1552 1547 1542 1537 1532 1528 1523 1518 1513 1509 1505 1500
1587 1596 1597 1601 1602 1604 1607 1609 1611 1612 1612 1613 1616 1618 1621 1623 1624 1625 1624 1622 1620 1618 1615 1611 1607 1603 1599 1595 1591 1586 1582 1578 1574 1569 1564 1559 1555 1550 1545 1539 1534 1529 1524 1519 1514 1509 1505 1501 1497
1590 1598 1601 1603 1604 1606 1608 1609 1610 1611 1611 1613 1615 1618 1620 1622 1623 1622 1622 1621 1619 1617 1614 1610 1606 1601 1597 1593 1589 1585 1581 1577 1572 1567 1563 1557 1552 1547 1542 1537 1532 1527 1522 1516 1511 1506 1501 1496 1492
1595 1598 1602 1605 1606 1607 1608 1610 1610 1610 1611 1613 1615 1618 1619 1620 1621 1621 1620 1619 1618 1615 1612 1609 1604 1600 1595 1592 1588 1584 1580 1575 1571 1566 1560 1555 1550 1544 1539 1534 1529 1524 1519 1513 1508 1503 1497 1492 1488
1597 1599 1603 1605 1606 1607 1609 1607 1606 1607 1610 1613 1615 1617 1618 1619 1619 1619 1618 1617 1616 1613 1611 1607 1603 1599 1595 1591 1587 1583 1579 1574 1569 1563 1558 1552 1547 1541 1536 1531 1526 1521 1515 1510 1504 1499 1494 1488 1483
1595 1594 1593 1602 1604 1606 1608 1594 1600 1605 1608 1611 1613 1615 1616 1616 1617 1616 1616 1615 1613 1611 1608 1605 1601 1597 1594 1590 1586 1582 1577 1572 1566 1561 1555 1549 1544 1538 1533 1528 1523 1518 1512 1506 1501 1496 1490 1484 1479
1588 1585 1586 1596 1602 1603 1603 1592 1600 1603 1606 1608 1610 1612 1613 1614 1614 1614 1613 1612 1611 1609 1606 1603 1600 1596 1592 1588 1584 1580 1575 1569 1564 1559 1553 1547 1541 1536 1530 1525 1520 1514 1509 1504 1499 1493 1487 1481 1475
1583 1582 1585 1587 1595 1599 1597 1591 1597 1601 1603 1604 1606 1608 1610 1610 1611 1611 1610 1609 1608 1607 1604 1601 1598 1594 1590 1586 1582 1578 1573 1567 1562 1556 1551 1544 1538 1533 1527 1522 1517 1511 1506 1501 1495 1490 1484 1478 1472
1586 1585 1584 1586 1594 1596 1590 1588 1590 1597 1599 1601 1602 1604 1605 1607 1608 1607 1607 1607 1606 1604 1602 1599 1595 1591 1587 1583 1579 1574 1569 1564 1558 1553 1547 1541 1535 1529 1524 1519 1513 1508 1503 1498 1492 1486 1481 1475 1470
1587 1585 1582 1588 1596 1594 1586 1583 1584 1589 1592 1594 1597 1599 1601 1603 1604 1603 1604 1604 1603 1602 1599 1596 1593 1589 1585 1580 1576 1571 1565 1560 1555 1550 1544 1539 1533 1527 1521 1516 1510 1505 1500 1494 1489 1484 1478 1472 1468
1586 1584 1583 1586 1592 1595 1591 1572 1581 1587 1590 1592 1593 1594 1596 1598 1600 1600 1600 1601 1600 1599 1597 1593 1590 1586 1582 1578 1573 1568 1563 1558 1553 1547 1541 1535 1530 1524 1518 1513 1507 1502 1497 1491 1486 1481 1475 1469 1465
1584 1588 1590 1590 1588 1578 1588 1570 1568 1580 1585 1587 1587 1589 1590 1593 1595 1596 1597 1597 1597 1596 1593 1590 1587 1583 1579 1575 1570 1565 1560 1555 1550 1544 1538 1532 1527 1521 1516 1510 1505 1499 1494 1488 1482 1477 1472 1466 1461
1588 1591 1590 1590 1587 1582 1584 1577 1560 1579 1576 1577 1580 1582 1585 1588 1591 1592 1593 1594 1593 1592 1590 1587 1584 1581 1577 1572 1568 1562 1557 1552 1547 1541 1535 1530 1524 1518 1513 1507 1502 1496 1490 1484 1478 1472 1467 1462 1457
1592 1591 1590 1589 1585 1577 1577 1576 1560 1566 1568 1571 1576 1578 1581 1584 1586 1588 1589 1590 1590 1589 1587 1584 1581 1578 1574 1570 1565 1560 1555 1549 1544 1538 1532 1527 1521 1516 1510 1504 1499 1493 1487 1480 1474 1467 1462 1457 1452
1589 1583 1575 1572 1570 1567 1583 1579 1563 1566 1570 1573 1575 1576 1578 1580 1582 1583 1585 1586 1586 1585 1583 1581 1578 1575 1571 1567 1562 1557 1552 1547 1541 1536 1530 1524 1518 1513 1507 1501 1495 1489 1483 1476 1469 1463 1456 1451 1445
1589 1586 1584 1584 1575 1568 1578 1573 1557 1568 1571 1572 1573 1574 1575 1576 1578 1580 1581 1582 1582 1581 1580 1578 1575 1572 1568 1564 1559 1554 1549 1544 1538 1533 1527 1522 1516 1510 1504 1498 1492 1486 1479 1473 1465 1458 1452 1445 1440
1588 1587 1591 1586 1585 1584 1565 1562 1557 1569 1569 1570 1570 1571 1571 1573 1574 1576 1578 1579 1579 1578 1577 1575 1572 1569 1565 1561 1556 1552 1547 1541 1536 1531 1525 1520 1514 1508 1501 1495 1489 1483 1476 1469 1462 1454 1447 1441 1435
1592 1590 1590 1587 1584 1578 1563 1559 1555 1554 1558 1563 1566 1567 1568 1569 1571 1573 1574 1575 1575 1574 1573 1571 1569 1566 1562 1558 1554 1549 1544 1539 1533 1528 1523 1517 1511 1505 1499 1493 1486 1480 1473 1466 1459 1452 1444 1437 1431
1592 1592 1590 1588 1587 1582 1573 1556 1551 1551 1555 1558 1560 1561 1563 1564 1566 1568 1570 1571 1571 1571 1569 1568 1565 1562 1559 1555 1551 1546 1541 1536 1530 1525 1520 1514 1509 1503 1496 1490 1484 1477 1470 1464 1457 1450 1442 1434 1428
1588 1586 1586 1584 1582 1585 1580 1560 1551 1553 1555 1556 1557 1557 1558 1560 1562 1565 1566 1567 1567 1567 1566 1564 1562 1559 1556 1552 1548 1543 1538 1533 1528 1523 1517 1512 1506 1500 1494 1488 1481 1475 1468 1462 1455 1448 1441 1434 1427